FW0886 Weather Reports


time (UTC)temp
F
wind
direction
speed
knots
gust
knots
rain 1hr
in
rain 24hr
in
rain mn
in
humidity
%
barometer
mb
20260505100317 52 0.0 0.0 0.00 0.05 0.05 63 1008.9
20260505095317 52 68 2.6 7.0 0.00 0.05 0.05 65 1009.0
20260505094317 52 0.0 0.9 0.00 0.05 0.05 69 1009.0
20260505093317 51 68 2.6 7.0 0.00 0.05 0.05 71 1008.2
20260505092317 51 0.0 0.0 0.00 0.05 0.05 74 1008.0
20260505091317 51 0.0 0.9 0.00 0.05 0.05 75 1007.7
20260505090357 51 0.0 1.7 0.01 0.05 0.05 77 1007.4
20260505085317 51 338 0.9 1.7 0.01 0.05 0.05 76 1007.2
20260505084317 51 0 0.9 2.6 0.02 0.05 0.05 76 1007.4
20260505083317 51 338 0.9 3.5 0.04 0.05 0.05 76 1007.2
20260505082317 51 0.0 0.0 0.05 0.05 0.05 75 1007.6
20260505081317 52 0.0 0.9 0.05 0.05 0.05 75 1007.7
20260505080317 52 0.0 0.9 0.04 0.04 0.04 73 1007.8
20260505075317 53 0.0 0.0 0.04 0.04 0.04 69 1008.7
20260505074317 55 0.0 1.7 0.03 0.03 0.03 62 1009.2
20260505073317 57 0.0 0.9 0.01 0.01 0.01 56 1008.9
20260505072316 58 0.0 0.9 0.00 0.00 0.00 48 1008.4
20260505071337 59 225 0.9 2.6 0.00 0.00 0.00 43 1007.8
20260505070337 59 338 2.6 7.0 0.00 0.00 0.00 42 1006.9
20260505065316 60 45 2.6 5.2 0.00 0.00 0.00 41 1006.8
20260505064317 60 23 2.6 7.8 0.00 0.00 0.00 41 1006.3
20260505063317 60 68 1.7 3.5 0.00 0.00 0.00 42 1006.5
20260505062317 61 90 2.6 4.3 0.00 0.00 0.00 42 1006.4
20260505061337 62 68 2.6 4.3 0.00 0.00 0.00 44 1006.0
20260505060337 62 45 1.7 4.3 0.00 0.00 0.00 43 1005.8
20260505055316 63 45 2.6 5.2 0.00 0.00 0.00 42 1005.6
20260505054317 65 45 3.5 7.0 0.00 0.00 0.00 41 1005.8
20260505053316 65 45 4.3 13.0 0.00 0.00 0.00 41 1005.4
20260505052316 66 23 0.9 4.3 0.00 0.00 0.00 43 1005.1
20260505051317 67 68 2.6 6.1 0.00 0.00 0.00 42 1005.0
20260505050337 67 68 1.7 6.1 0.00 0.00 0.00 43 1005.0
20260505041336 70 68 1.7 2.6 0.00 0.00 0.00 39 1004.0
20260505040316 70 0.0 0.9 0.00 0.00 0.00 42 1003.7
20260505035316 70 45 1.7 3.5 0.00 0.00 0.00 43 1003.6
20260505034316 69 0.0 0.9 0.00 0.00 0.00 56 1003.2
20260505033336 67 0.0 0.9 0.00 0.00 0.00 69 1003.3
20260505032356 67 0.0 0.9 0.00 0.00 0.00 74 1002.9
20260505031316 67 0.0 0.0 0.00 0.00 0.00 73 1002.3
20260505030315 67 0.0 0.0 0.00 0.00 0.00 71 1002.2
20260505025316 68 0.0 0.0 0.00 0.00 0.00 69 1002.2
20260505024335 69 0.0 0.0 0.00 0.00 0.00 68 1002.2
20260505023316 69 0.0 0.0 0.00 0.00 0.00 68 1002.0
20260505022316 69 0.0 0.0 0.00 0.00 0.00 67 1001.8
20260505021315 69 0.0 0.0 0.00 0.00 0.00 67 1001.5
20260505020315 69 0.0 0.0 0.00 0.00 0.00 66 1001.4
20260505015315 70 0.0 0.0 0.00 0.00 0.00 65 1001.3
20260505014315 70 0.0 0.0 0.00 0.00 0.00 64 1001.2
20260505013316 71 0.0 0.9 0.00 0.00 0.00 61 1001.1
20260505012316 72 0.0 0.0 0.00 0.00 0.00 59 1001.0
20260505011315 74 0.0 0.0 0.00 0.00 0.00 57 1001.0
20260505010315 75 0.0 0.0 0.00 0.00 0.00 55 1000.9
20260505005316 76 0.0 0.0 0.00 0.00 0.00 52 1000.8
20260505004356 77 0.0 0.0 0.00 0.00 0.00 52 1000.7
20260505003315 78 0.0 0.9 0.00 0.00 0.00 50 1000.7
20260505002315 79 0.0 0.0 0.00 0.00 0.00 49 1000.6
20260505001315 79 0.0 0.9 0.00 0.00 0.00 48 1000.5
20260505000315 80 158 0.9 1.7 0.00 0.00 0.00 48 1000.7
20260504235315 80 203 0.9 2.6 0.00 0.00 0.00 47 1000.6
20260504234317 80 0.0 0.9 0.00 0.00 0.00 48 1000.5
20260504233317 80 225 0.9 1.7 0.00 0.00 0.00 46 1000.5
20260504232317 81 135 1.7 4.3 0.00 0.00 0.00 46 1000.4
20260504231317 81 180 1.7 5.2 0.00 0.00 0.00 45 1000.4
20260504230337 82 248 2.6 4.3 0.00 0.00 0.00 45 1000.4
20260504225317 83 113 3.5 7.8 0.00 0.00 0.00 44 1000.5
20260504224317 83 248 1.7 4.3 0.00 0.00 0.00 45 1000.4
20260504223317 83 225 2.6 7.0 0.00 0.00 0.00 43 1000.4
20260504222317 84 135 0.9 3.5 0.00 0.00 0.00 42 1000.5
20260504221317 85 135 4.3 7.0 0.00 0.00 0.00 39 1000.6
20260504220317 84 225 0.9 1.7 0.00 0.00 0.00 37 1000.5
20260504215317 85 113 3.5 5.2 0.00 0.00 0.00 34 1000.6
20260504214357 85 0.0 1.7 0.00 0.00 0.00 38 1000.7
20260504213337 85 68 1.7 3.5 0.00 0.00 0.00 37 1000.8
20260504212337 85 113 0.9 1.7 0.00 0.00 0.00 36 1000.7
20260504211335 85 135 1.7 2.6 0.00 0.00 0.00 37 1000.7
20260504210317 85 225 0.9 2.6 0.00 0.00 0.00 37 1000.8
20260504205337 85 158 0.9 1.7 0.00 0.00 0.00 40 1000.9
20260504204317 85 23 0.9 1.7 0.00 0.00 0.00 43 1001.1
20260504203337 84 135 2.6 3.5 0.00 0.00 0.00 42 1001.2
20260504202317 84 135 4.3 9.6 0.00 0.00 0.00 39 1001.4
20260504201317 85 135 3.5 5.2 0.00 0.00 0.00 39 1001.4
20260504200317 84 135 0.9 2.6 0.00 0.00 0.00 40 1001.5
20260504195317 84 135 2.6 5.2 0.00 0.00 0.00 43 1001.6
20260504194317 84 225 1.7 3.5 0.00 0.00 0.00 44 1001.7
20260504193317 83 0.0 0.9 0.00 0.00 0.00 44 1001.6
20260504192317 82 113 3.5 6.1 0.00 0.00 0.00 41 1001.8
20260504191317 83 158 4.3 8.7 0.00 0.00 0.00 43 1001.8
20260504190317 82 203 2.6 4.3 0.00 0.00 0.00 44 1001.8
20260504185316 82 180 1.7 3.5 0.00 0.00 0.00 44 1001.7
20260504184316 81 225 2.6 5.2 0.00 0.00 0.00 44 1001.9
20260504183357 81 225 3.5 5.2 0.00 0.00 0.00 42 1001.9
20260504182317 81 23 1.7 6.1 0.00 0.00 0.00 44 1002.2
20260504181317 81 225 3.5 5.2 0.00 0.00 0.00 43 1002.1
20260504180317 81 135 2.6 4.3 0.00 0.00 0.00 45 1002.3
20260504175316 79 158 0.9 2.6 0.00 0.00 0.00 47 1002.3
20260504174336 79 203 0.9 2.6 0.00 0.00 0.00 46 1002.4
20260504173316 79 135 3.5 6.1 0.00 0.00 0.00 45 1002.6
20260504172316 79 225 1.7 7.0 0.00 0.00 0.00 45 1002.5
20260504171316 79 225 1.7 3.5 0.00 0.00 0.00 47 1002.6
20260504170316 79 203 3.5 6.1 0.00 0.00 0.00 46 1002.6
20260504160316 76 203 5.2 7.8 0.00 0.00 0.00 48 1002.7
20260504150316 72 225 3.5 7.0 0.00 0.00 0.00 52 1002.5
20260504140316 68 225 2.6 6.1 0.00 0.00 0.00 56 1002.7
20260504130316 65 0.0 1.7 0.00 0.00 0.00 59 1003.0
20260504120316 62 0.0 0.0 0.00 0.00 0.00 63 1003.1
20260504110316 55 0.0 0.9 0.00 0.00 0.00 80 1003.1